Weather History for KMGW - March, 2012

Change the Weather History Date:

Monday, March 12, 2012

  Actual Average Record
Temperature  
Mean Temperature 54 °F 41 °F  
Max Temperature 66 °F 50 °F 80 °F (1990)
Min Temperature 41 °F 31 °F 9 °F (1984)
Degree Days  
Heating Degree Days 11 24  
Month to date heating degree days 251 313  
Since 1 July heating degree days 3559 4202  
Cooling Degree Days 0 0  
Month to date cooling degree days 0 0  
Year to date cooling degree days 0 0  
Growing Degree Days 4 (Base 50)    
Moisture  
Dew Point 43 °F    
Average Humidity 60    
Maximum Humidity 93    
Minimum Humidity 26    
Precipitation  
Precipitation 0.23 in 0.11 in 1.22 in (1968)
Month to date precipitation 1.09 1.32  
Year to date precipitation 6.32 6.73  
Sea Level Pressure  
Sea Level Pressure 30.22 in    
Wind  
Wind Speed 3 mph (South)    
Max Wind Speed 12 mph    
Max Gust Speed 17 mph    
Visibility 8 miles    
Events Rain    
T = Trace of Precipitation, MM = Missing Value Source: NWS Daily Summary

Daily Weather History Graph

Daily Weather History Graph

Search for Another Location

Airport or City:

Trip Planner

Search our weather history database for the weather conditions in past years. The results will help you decide how hot, cold, wet, or windy it might be!

Date:

Astronomy

Mar. 12, 2012 Rise Set
Actual Time 7:35 AM EDT 7:23 PM EDT
Civil Twilight 7:08 AM EDT 7:50 PM EDT
Nautical Twilight 6:37 AM EDT 8:22 PM EDT
Astronomical Twilight 6:05 AM EDT 8:53 PM EDT
Moon No Moon Rise 9:56 AM EDT (3/12)
Length of Visible Light 12h 42m
Length of Day
11h 48m
Waning Gibbous, 76% of the Moon is Illuminated
Mar 12
Waning Gibbous
Mar 14
Last Quarter
Mar 22
New
Mar 30
First Quarter
Apr 6
Full

Hourly Weather History & Observations

Time (EDT) Temp. Dew Point Humidity Pressure Visibility Wind Dir Wind Speed Gust Speed Precip Events Conditions
12:53 AM 50.0 °F 27.0 °F 41% 30.31 in 10.0 mi Calm Calm - N/A   Clear
1:53 AM 50.0 °F 28.0 °F 43% 30.30 in 10.0 mi Calm Calm - N/A   Clear
2:53 AM 48.0 °F 28.0 °F 46% 30.29 in 10.0 mi Calm Calm - N/A   Clear
3:53 AM 46.0 °F 32.0 °F 58% 30.29 in 10.0 mi Calm Calm - N/A   Clear
4:53 AM 44.1 °F 28.9 °F 55% 30.28 in 10.0 mi Calm Calm - N/A   Clear
5:53 AM 46.4 °F 30.2 °F 53% 30.27 in 10.0 mi Calm Calm - N/A   Clear
6:53 AM 43.0 °F 30.0 °F 60% 30.27 in 10.0 mi Calm Calm - N/A   Clear
7:53 AM 41.0 °F 30.9 °F 67% 30.28 in 10.0 mi Calm Calm - N/A   Clear
8:53 AM 46.0 °F 33.1 °F 61% 30.28 in 10.0 mi Calm Calm - N/A   Clear
9:53 AM 57.2 °F 32.0 °F 38% 30.27 in 10.0 mi Calm Calm - N/A   Clear
10:53 AM 62.1 °F 30.0 °F 30% 30.26 in 10.0 mi SSW 3.5 mph - N/A   Clear
11:53 AM 66.0 °F 30.0 °F 26% 30.25 in 10.0 mi SSW 8.1 mph - N/A   Scattered Clouds
12:53 PM 61.0 °F 34.0 °F 36% 30.26 in 10.0 mi SSW 6.9 mph - 0.00 in Rain Light Rain
1:24 PM 55.4 °F 44.6 °F 67% 30.26 in 10.0 mi SSW 5.8 mph - 0.01 in Rain Light Rain
1:41 PM 53.6 °F 48.2 °F 82% 30.24 in 8.0 mi South 5.8 mph - 0.02 in Rain Light Rain
1:53 PM 54.0 °F 48.0 °F 80% 30.25 in 10.0 mi South 6.9 mph - 0.02 in Rain Light Rain
2:53 PM 54.0 °F 48.9 °F 83% 30.22 in 4.0 mi WSW 6.9 mph - 0.04 in Rain Rain
2:56 PM 53.6 °F 50.0 °F 88% 30.21 in 1.5 mi SSW 4.6 mph - 0.01 in Rain Rain
3:09 PM 53.6 °F 50.0 °F 88% 30.21 in 3.0 mi South 4.6 mph - 0.03 in Rain Light Rain
3:50 PM 53.6 °F 51.8 °F 94% 30.19 in 3.0 mi SSE 4.6 mph - 0.11 in Rain Rain
3:53 PM 53.1 °F 51.1 °F 93% 30.20 in 3.0 mi SSE 3.5 mph - 0.12 in Rain Light Rain
4:18 PM 53.6 °F 51.8 °F 94% 30.18 in 2.0 mi Calm Calm - 0.01 in Rain Rain
4:43 PM 55.4 °F 53.6 °F 94% 30.18 in 4.0 mi SSE 3.5 mph - 0.03 in Rain Light Rain
4:53 PM 55.0 °F 53.1 °F 93% 30.19 in 6.0 mi Calm Calm - 0.03 in   Overcast
5:53 PM 57.0 °F 54.0 °F 89% 30.16 in 10.0 mi South 6.9 mph - N/A   Overcast
6:53 PM 57.9 °F 54.0 °F 87% 30.14 in 10.0 mi South 4.6 mph - N/A   Overcast
7:53 PM 57.9 °F 55.0 °F 90% 30.14 in 10.0 mi South 4.6 mph - 0.00 in   Overcast
8:53 PM 57.9 °F 55.0 °F 90% 30.13 in 10.0 mi South 4.6 mph - 0.02 in   Overcast
9:53 PM 59.0 °F 54.0 °F 83% 30.10 in 10.0 mi South 9.2 mph - 0.00 in   Overcast
10:53 PM 59.0 °F 54.0 °F 83% 30.10 in 10.0 mi SSW 5.8 mph - N/A   Overcast
11:53 PM 57.9 °F 55.0 °F 90% 30.10 in 10.0 mi South 3.5 mph - 0.00 in   Overcast